Weather in Kulusutay

Russia / Zabaykalsky Krai     50°13′55″N   115°40′47″E
temp.,
°C
wind,
m/s
gust,
m/s
humid.,
%
clouds,
%
prec.,
mm/h
press.,
hPa
HPBL,
m
21 june, mon
mon2100:00+14nne228679 0.8 100928
03:00+12ne338921 0.8 100927
06:00+12ene22895 0.0 101022
09:00+16e23735 0.0 1011436
12:00+20se235831 0.0 10101266
15:00+21s235372 0.1 10091275
18:00+21se225244 0.0 1009757
21:00+18se12640 0.0 100911
22 june, tue
tue2200:00+16se22720 0.0 101011
03:00+14se11760 0.0 101011
06:00+15ese22742 0.0 101112
09:00+19sse22580 0.0 1011344
12:00+22s34450 0.0 10101037
15:00+24s23380 0.0 10091582
18:00+24s553915 0.0 10081088
21:00+21sse455313 0.0 100859
23 june, wed
wed2300:00+19sse365770 0.0 1009122
03:00+17sse356397 0.0 1009101
06:00+17se246295 0.0 100982
09:00+18se346060 0.0 1009165
12:00+24s454220 0.0 1008598
15:00+26s3433100 0.0 10061390
18:00+27sse45314 0.0 10051086
21:00+22sse484661 0.0 1005128
24 june, thu
thu2400:00+19se1255100 0.0 100620
03:00+17sse3462100 0.1 100757
06:00+17sse356191 0.1 100691
09:00+21ssw334720 0.2 1005273
12:00+25s3338100 0.1 1004669
15:00+28ssw343189 0.1 10031415
18:00+28ssw34336 1.1 1001585
21:00+24s354596 1.2 100167
25 june, fri
fri2500:00+20sse346238 0.1 100244
03:00+18ese227091 0.1 100213
06:00+18wsw117291 0.0 100213
09:00+22nnw33585 0.0 1003414
12:00+26nw11455 0.0 10021068
15:00+27ssw44435 0.0 10021210
18:00+28wnw23375 0.2 10011392
21:00+24ne12571 0.3 100212